OSCAR 23 [?]

Last updated on Wed Jun 28 2023 01:03:29 GMT+0100 (British Summer Time)

1 19070U 88033A 23177.75556589 .00000112 00000+0 20819-3 0 9995 2 19070 90.3188 348.6118 0190434 162.5167 209.4384 13.27580718703381
UTC large
Height (km)
Speed (km/s)
/
Latitude / Longitude
Inclination (degrees)
Orbital Period (minutes)
Azimuth
Elevation
Range (km)
Doppler Factor

Next 0 passes for location: London (51.5072 / 0.1276)

Sorry there are no passes over London.